Погода в Братске

Погода в Братске : погода сейчас, прогноз погоды и архив. Всё, что Вы хотите узнать о погоде в Братске!

Поиск расширенной информации на нашем сайте:

Другие новости

Новости СМИ2

Главная страница сайта

Новости сайта

03.07.2017

Напоминаем, что на нашем специализированном сайте Метеоцентр.Азия вы можете получить высокодетализированные автоматические прогнозы погоды по пунктам России, СНГ и мира в авиационном формате (включающие направление и скорость ветра, видимость, явления погоды, количество и форму облачности, нижнюю и верхнюю границу облачности).


Погода в Братске - сегодня

Время (UTC), дата Ветер
(°,м/с) 
Видим.   Явления Облачность Т
(°С)
Тd
(°С)
f(%) Тe
(°С)
Pmin
(гПа)
dP
(гПа)
Po
(мм)
O2
(г/м3)
Тmin Tmax R s Состояние
почвы
21 19.09.17 350 (С) н/о    10/3 600 м кучево-дожд., средняя, верхняя 
[Cb cap|Ac trans|Ci fib]
+7.9 +6.9 93 +8  1009.3  -0.1  720  281           
00 20.09.17 350 (С) 20000 м    10/10 600 м кучево-дожд. 
[Cb cap]
+6.9 +6 94 +8  1010.5  0.9  721  282  +6.9    0.9    влажная 
03 20.09.17 350 (С) 20000 м    10/10 300 м 
[St]
+6.2 +4.6 89 +6  1011.4  0.8  721  283  +5.8         
06 20.09.17 310 (СЗ) 20000 м    10/8 300 м средняя 
[Sc|As op]
+6.4 +4.2 86 +7  1012.2  0.7  722  283           
09 20.09.17 360 (С) 20000 м    9/9 600 м 
[Sc]
+6.1 +3 80 +6  1013  0.8  722  284           
12 20.09.17 350 (С) н/о    10/10 600 м 
[Sc]
+5.3 +2.3 81 +6  1014.6  1.3  723  285    +6.9       
15 20.09.17 030 (СВ) н/о    10/10 600 м 
[Sc]
+4.7 +1.7 81 +6  1015.6  0.9  724  286           
18 20.09.17 330 (СЗ) н/о    10/10 600 м 
[Sc]
+3.7 +1.6 86 +5  1015.5  -0.2  724  287           
21 20.09.17 340 (С) н/о    10/10 600 м 
[Sc]
+3.3 +1.7 89 +4  1015.8  0.2  724  288           
00 21.09.17 320 (СЗ) 20000 м    10/10 600 м 
[Sc]
+3.3 +1.7 89 +4  1016.5  0.7  724  288  +3.1        влажная 
03 21.09.17 300 (СЗ) 20000 м    10/8 600 м средняя, верхняя 
[Sc|Ac trans|Ci fib]
+6.3 +0.8 68 +7  1015.8  -0.1  724  285           
06 21.09.17 220 (ЮЗ) 20000 м    10/8 600 м верхняя 
[Sc|Ci fib]
+6.8 +0.9 66 +8  1014.4  -1.3  723  284           
09 21.09.17 220 (ЮЗ) 20000 м    10/8 600 м верхняя 
[Sc|Ci sp]
+7.5 +1.6 66 +7  1012.7  -1.5  722  283           
12 21.09.17 270 (З) н/о    6/0 средняя, верхняя 
[Ac trans|Ci fib]
+5 +0.8 74 +6  1012  -1.1  721  285    +8.7       
15 21.09.17 350 (С) н/о    10/0 верхняя 
[Ci fib]
+3 +0.5 84 +4  1010.5  -1.8  720  287           
18 21.09.17 040 (СВ) н/о    10/0 верхняя 
[Ci sp]
+1.4 +0.8 96 +1  1008.3  -2.3  718  288           
21 21.09.17 030 (СВ) н/о  туман на расстоянии  8/0 верхняя 
[Ci fib]
+0.1 +0.1 100 -1  1006.9  -1.6  717  289           
00 22.09.17 050 (СВ) 1000 м  в посл. час туман  10/0 средняя, верхняя 
[Ac trans|Ci fib]
+0.7 +0.7 100 1005.7  -1  716  288  -0.2         
03 22.09.17 060 (СВ) 20000 м    10/0 средняя, верхняя 
[Ac As|Cs]
+5.5 +2.2 79 +5  1004.2  -0.6  716  282           
06 22.09.17 130 (ЮВ) 20000 м    10/4 1000 м средняя, верхняя 
[Sc|As trans|Ci fib]
+9.8 -0.1 50 +11  1002.6  -0.8  715  278           
09 22.09.17 240 (ЮЗ) 20000 м    10/3 600 м кучево-дожд., средняя, верхняя 
[Cb cap|Ac trans|Ci fib]
+10.2 -0 49 +11  1002.6  715  278           
12 22.09.17 030 (СВ) н/о    10/10 600 м 
[Sc]
+8.7 -0.8 51 +10  1004.1  1.2  716  280    +10.7       
15 22.09.17 020 (С) н/о    10/0 средняя, верхняя 
[Ac trans|Ci sp]
+7 -1.8 53 +7  1005.6  1.1  717  282           
18 22.09.17 330 (СЗ) н/о    8/0 средняя, верхняя 
[Ac trans|Ci sp]
+5.3 -1 64 +6  1006.9  718  284           
21 22.09.17 350 (С) н/о    6/0 верхняя 
[Ci sp]
+3.9 -2.7 62 +5  1008.8  1.5  719  286           
Время (UTC), дата Ветер
(°,м/с) 
Видим.   Явления Облачность Т
(°С)
Тd
(°С)
f(%) Тe
(°С)
Pmin
(гПа)
dP
(гПа)
Po
(мм)
O2
(г/м3)
Тmin Tmax R s Состояние
почвы

Для получения пояснительной информации подведите курсор к названию столбца.

ПОГОДА в Братске - архив

Всё, что Вы хотите узнать о погоде в Братске - удобно и подробно!

Выберите нужную дату (начиная с 1 января 2015* года) и нажмите кнопку "Найти".
Будут отображены архивные сводки погоды по пункту Братск, начиная с указанной даты.


Отображать данные в формате CSV (для использования в таблицах Excel)


Внимание! Наш архив погоды предназначен исключительно для личного некоммерческого использования в познавательных целях. Если Вам необходимы официальные справки о состоянии погоды (для производственных, юридических, коммерческих и т.п. целей), обращайтесь в органы Росгидромета.

*Примечание: данная дата относится к архиву по метеостанциям СССР (Россия, СНГ, Балтия).
Архив по метеостанциям Зарубежной Европы и Азии (кроме Китая) хранится 10 дней, по другим регионам земного шара (Китай, Африка, Америка, Австралия, Океания) - 1 день.

Братск - район местоположения метеостанции


Название, широта, долгота, высота метеостанции:
Братск (город) 56.3°ш. 101.8°д. 416 м над ур. моря [Российская Федерация]

Дополнительная информация

В oтличие oт бoльшинства пoгoдных сайтoв мы публикуем пoдрoбную метеoинфoрмацию в детальнoм прoфессиoнальнoм фoрмате.

Характеристики температуры и влажнoсти вoздуха измеряются на высoте 2 м в тени вдали oт зданий и деревьев.
Скoрoсть ветра измеряется на высoте 10 м (на урoвне рoста челoвека скoрoсть ветра ниже в 1.5-2 раза). Если метеoстанция нахoдится в гoрoде или в лесу, тo скoрoсть ветра занижена на 2-4 м/с пo сравнению с oткрытым местoм. Скoрoсть ветра над акватoриями крупных рек и oзёр, а также на вершинах хoлмoв на 2-5 м/с выше, чем в oбычных услoвиях.
Атмoсфернoе давление в разных тoчках местнoсти мoжет значительнo oтличаться oт давления на метеoстанции, в зависимoсти oт услoвий рельефа (при пoдъёме на 10 м давление пoнижается примернo на 1 мм рт.ст.).